TimeMST,TemperatureF,Dew PointF,Humidity,Sea Level PressureIn,VisibilityMPH,Wind Direction,Wind SpeedMPH,Gust SpeedMPH,PrecipitationIn,Events,Conditions,WindDirDegrees,DateUTC
12:52 AM,12.9,3.9,67,30.13,10.0,SSE,16.1,-,N/A,,Clear,150,2013-02-20 07:52:00
1:52 AM,12.0,3.9,70,30.11,10.0,SE,16.1,-,N/A,,Clear,140,2013-02-20 08:52:00
2:52 AM,10.9,3.9,73,30.09,10.0,SSE,10.4,-,N/A,,Clear,150,2013-02-20 09:52:00
3:52 AM,12.0,5.0,73,30.08,10.0,SSE,13.8,-,N/A,,Clear,150,2013-02-20 10:52:00
4:52 AM,12.0,5.0,73,30.06,10.0,SE,13.8,-,N/A,,Clear,130,2013-02-20 11:52:00
5:52 AM,12.0,5.0,73,30.05,10.0,SE,17.3,-,N/A,,Clear,140,2013-02-20 12:52:00
6:52 AM,10.9,5.0,77,30.05,10.0,SE,15.0,-,N/A,,Clear,140,2013-02-20 13:52:00
7:52 AM,15.1,7.0,70,30.05,10.0,SSE,12.7,-,N/A,,Clear,150,2013-02-20 14:52:00
8:52 AM,21.0,8.1,57,30.02,10.0,South,23.0,27.6,N/A,,Clear,170,2013-02-20 15:52:00
9:52 AM,24.8,8.6,50,29.87,10.0,South,23.0,29.9,N/A,,Scattered Clouds,180,2013-02-20 16:52:00
10:03 AM,24.8,8.6,50,29.87,10.0,South,18.4,25.3,N/A,,Mostly Cloudy,180,2013-02-20 17:03:00
10:52 AM,26.1,9.0,49,30.01,10.0,South,19.6,27.6,N/A,,Mostly Cloudy,170,2013-02-20 17:52:00
11:04 AM,24.8,8.6,50,29.87,10.0,South,21.9,28.8,N/A,,Partly Cloudy,170,2013-02-20 18:04:00
11:52 AM,28.0,10.0,47,30.00,10.0,SSE,23.0,28.8,N/A,,Clear,160,2013-02-20 18:52:00
12:52 PM,32.0,10.9,42,29.96,10.0,South,19.6,25.3,N/A,,Clear,180,2013-02-20 19:52:00
1:52 PM,33.1,12.9,43,29.95,10.0,SSE,21.9,27.6,N/A,,Mostly Cloudy,150,2013-02-20 20:52:00
2:52 PM,30.9,16.0,54,29.96,10.0,SSE,19.6,26.5,N/A,,Overcast,160,2013-02-20 21:52:00
3:52 PM,28.4,15.8,59,29.82,10.0,SSE,19.6,-,N/A,,Overcast,160,2013-02-20 22:52:00
4:52 PM,27.0,16.0,63,29.97,10.0,SSE,19.6,25.3,N/A,,Overcast,160,2013-02-20 23:52:00
5:40 PM,26.6,15.8,64,29.84,10.0,South,17.3,-,N/A,,Overcast,170,2013-02-21 00:40:00
5:52 PM,26.1,16.0,66,29.99,10.0,SSE,16.1,-,N/A,,Overcast,150,2013-02-21 00:52:00
6:52 PM,25.0,17.1,72,30.01,10.0,SSE,16.1,-,N/A,,Overcast,150,2013-02-21 01:52:00
7:52 PM,24.8,17.6,74,29.86,10.0,SSE,12.7,-,N/A,,Overcast,150,2013-02-21 02:52:00
8:52 PM,25.0,18.0,75,29.99,10.0,SSE,17.3,-,N/A,,Overcast,160,2013-02-21 03:52:00
9:52 PM,24.1,17.1,75,30.01,10.0,SSE,13.8,-,N/A,,Overcast,160,2013-02-21 04:52:00
10:52 PM,24.1,18.0,77,30.01,10.0,SSE,12.7,-,N/A,,Overcast,160,2013-02-21 05:52:00
11:08 PM,24.8,17.6,74,29.89,10.0,SSE,13.8,-,N/A,,Overcast,160,2013-02-21 06:08:00
11:52 PM,24.1,18.0,77,30.01,10.0,SSE,11.5,-,N/A,,Overcast,160,2013-02-21 06:52:00